Location: Santa Teresa Spring
(37.2333°N, 121.7000°W)
Time: 20:40:10
(UTC-08:00)

ISS - Visible Passes

Search period start: 18 January 2017 00:00
Search period end: 28 January 2017 00:00
Orbit: 400 x 410 km, 51.6° (Epoch: 19 January)

Date Brightness Start Highest point End Pass type
(mag) Time Alt. Az. Time Alt. Az. Time Alt. Az.
18 Jan -1.8 05:21:26 32° NE 05:21:26 32° NE 05:24:04 10° E visible
19 Jan -2.9 06:04:21 31° W 06:05:25 45° SW 06:08:31 10° SSE visible
20 Jan -1.6 05:14:40 32° SE 05:14:40 32° SE 05:16:34 10° SE visible
21 Jan -1.4 05:57:46 16° SW 05:57:46 16° SW 05:59:31 10° S visible
22 Jan -0.3 05:08:14 10° SSE 05:08:14 10° SSE 05:08:17 10° SSE visible
25 Jan -1.2 19:04:24 10° S 19:05:36 17° S 19:05:36 17° S visible
26 Jan -1.1 18:13:42 10° SSE 18:15:05 12° SE 18:16:03 11° ESE visible
26 Jan -0.3 19:47:59 10° WSW 19:48:45 16° WSW 19:48:45 16° WSW visible
27 Jan -3.5 18:55:42 10° SW 18:58:56 68° SE 18:59:06 67° ESE visible
